Weather History for O'Neill, NE

Change the Weather History Date:

Wednesday, March 5, 2014

  Actual Average Record
Temperature  
Mean Temperature 24 °F -  
Max Temperature 30 °F 42 °F 75 °F (1987)
Min Temperature 17 °F 18 °F -18 °F (1989)
Degree Days  
Heating Degree Days 42    
Moisture  
Dew Point 15 °F    
Average Humidity 76    
Maximum Humidity 86    
Minimum Humidity 64    
Precipitation  
Precipitation 0.00 in - - ()
Sea Level Pressure  
Sea Level Pressure 30.19 in    
Wind  
Wind Speed 6 mph (East)    
Max Wind Speed 13 mph    
Max Gust Speed -    
Visibility 9 miles    
Events      
Averages and records for this station are not official NWS values.
T = Trace of Precipitation, MM = Missing Value Source: NWS Daily Summary

Daily Weather History Graph

Daily Weather History Graph

Search for Another Location

Airport:

Trip Planner

Search our weather history database for the weather conditions in past years. The results will help you decide how hot, cold, wet, or windy it might be!

Date:

Astronomy

Mar. 05, 2014 Rise Set
Actual Time 7:03 AM CST 6:29 PM CST
Civil Twilight 6:35 AM CST 6:57 PM CST
Nautical Twilight 6:02 AM CST 7:30 PM CST
Astronomical Twilight 5:30 AM CST 8:02 PM CST
Moon 9:24 AM CST (3/5) 11:46 PM CST (3/5)
Length of Visible Light 12h 22m
Length of Day
11h 25m
Waxing Crescent, 23% of the Moon is Illuminated
Mar 5
Waxing Crescent
Mar 8
First Quarter
Mar 16
Full
Mar 23
Last Quarter
Mar 30
New

Hourly Weather History & Observations

Time (CST) Temp. Windchill Dew Point Humidity Pressure Visibility Wind Dir Wind Speed Gust Speed Precip Events Conditions
12:18 AM 19.4 °F 11.5 °F 14.0 °F 80% 30.14 in 10.0 mi North 5.8 mph - N/A   Overcast
12:38 AM 19.4 °F 10.4 °F 14.0 °F 80% 30.14 in 10.0 mi North 6.9 mph - N/A   Overcast
12:58 AM 19.4 °F 10.4 °F 14.0 °F 80% 30.14 in 10.0 mi NNE 6.9 mph - N/A   Overcast
1:17 AM 19.4 °F 9.5 °F 14.0 °F 80% 30.15 in 10.0 mi NNE 8.1 mph - N/A   Overcast
1:38 AM 19.4 °F 9.5 °F 12.2 °F 74% 30.15 in 10.0 mi NNE 8.1 mph - N/A   Overcast
1:58 AM 17.6 °F 8.2 °F 12.2 °F 79% 30.15 in 10.0 mi NNE 6.9 mph - N/A   Overcast
2:18 AM 17.6 °F 7.3 °F 12.2 °F 79% 30.15 in 10.0 mi NNE 8.1 mph - N/A   Overcast
2:38 AM 17.6 °F 12.3 °F 12.2 °F 79% 30.16 in 10.0 mi North 3.5 mph - N/A   Overcast
2:58 AM 17.6 °F 9.3 °F 12.2 °F 79% 30.16 in 10.0 mi North 5.8 mph - N/A   Overcast
3:18 AM 17.6 °F 9.3 °F 12.2 °F 79% 30.15 in 10.0 mi NNE 5.8 mph - N/A   Overcast
3:38 AM 17.6 °F 9.3 °F 12.2 °F 79% 30.15 in 10.0 mi NE 5.8 mph - N/A   Overcast
3:58 AM 17.6 °F 10.7 °F 12.2 °F 79% 30.16 in 10.0 mi NE 4.6 mph - N/A   Overcast
4:18 AM 17.6 °F 12.3 °F 12.2 °F 79% 30.17 in 10.0 mi NNE 3.5 mph - N/A   Overcast
4:38 AM 17.6 °F 12.3 °F 12.2 °F 79% 30.16 in 10.0 mi NE 3.5 mph - N/A   Overcast
5:02 AM 17.6 °F - 12.2 °F 79% 30.17 in 10.0 mi Calm Calm - N/A   Overcast
5:18 AM 17.6 °F 10.7 °F 12.2 °F 79% 30.18 in 10.0 mi North 4.6 mph - N/A   Overcast
5:38 AM 17.6 °F 12.3 °F 12.2 °F 79% 30.19 in 10.0 mi North 3.5 mph - N/A   Overcast
6:02 AM 17.6 °F 10.7 °F 12.2 °F 79% 30.21 in 10.0 mi North 4.6 mph - N/A   Overcast
6:22 AM 17.6 °F 8.2 °F 12.2 °F 79% 30.21 in 10.0 mi North 6.9 mph - N/A   Overcast
6:38 AM 17.6 °F 7.3 °F 14.0 °F 86% 30.22 in 7.0 mi North 8.1 mph - N/A   Overcast
7:00 AM 17.6 °F 6.4 °F 14.0 °F 86% 30.23 in 7.0 mi NNW 9.2 mph - N/A   Overcast
7:28 AM 17.6 °F 7.3 °F 14.0 °F 86% 30.23 in 5.0 mi North 8.1 mph - N/A   Overcast
7:37 AM 17.6 °F 7.3 °F 14.0 °F 86% 30.23 in 5.0 mi North 8.1 mph - N/A   Overcast
7:57 AM 17.6 °F 6.4 °F 14.0 °F 86% 30.24 in 7.0 mi North 9.2 mph - N/A   Overcast
8:17 AM 17.6 °F 7.3 °F 14.0 °F 86% 30.24 in 7.0 mi NNE 8.1 mph - N/A   Overcast
8:37 AM 17.6 °F 6.4 °F 14.0 °F 86% 30.25 in 5.0 mi NNE 9.2 mph - N/A   Overcast
8:57 AM 17.6 °F 7.3 °F 14.0 °F 86% 30.26 in 7.0 mi NNE 8.1 mph - N/A   Overcast
9:17 AM 17.6 °F 9.3 °F 14.0 °F 86% 30.26 in 7.0 mi NNE 5.8 mph - N/A   Overcast
9:37 AM 17.6 °F 8.2 °F 14.0 °F 86% 30.26 in 7.0 mi NE 6.9 mph - N/A   Overcast
9:57 AM 17.6 °F 9.3 °F 14.0 °F 86% 30.26 in 7.0 mi NE 5.8 mph - N/A   Overcast
10:17 AM 19.4 °F 14.3 °F 14.0 °F 80% 30.26 in 7.0 mi NE 3.5 mph - N/A   Overcast
10:37 AM 19.4 °F 10.4 °F 14.0 °F 80% 30.26 in 7.0 mi East 6.9 mph - N/A   Overcast
10:57 AM 19.4 °F 10.4 °F 14.0 °F 80% 30.26 in 7.0 mi ENE 6.9 mph - N/A   Overcast
11:18 AM 19.4 °F 12.8 °F 14.0 °F 80% 30.27 in 10.0 mi East 4.6 mph - N/A   Overcast
11:36 AM 21.2 °F - 14.0 °F 74% 30.26 in 10.0 mi Calm Calm - N/A   Overcast
11:57 AM 21.2 °F - 14.0 °F 74% 30.27 in 10.0 mi Calm Calm - N/A   Overcast
12:17 PM 21.2 °F 16.4 °F 14.0 °F 74% 30.26 in 10.0 mi ESE 3.5 mph - N/A   Overcast
12:37 PM 23.0 °F - 14.0 °F 68% 30.25 in 10.0 mi Calm Calm - N/A   Overcast
12:57 PM 24.8 °F - 15.8 °F 69% 30.25 in 10.0 mi Calm Calm - N/A   Overcast
1:17 PM 24.8 °F - 15.8 °F 69% 30.24 in 10.0 mi Calm Calm - N/A   Overcast
1:36 PM 24.8 °F 20.5 °F 15.8 °F 69% 30.22 in 10.0 mi SSE 3.5 mph - N/A   Overcast
1:57 PM 24.8 °F 19.1 °F 15.8 °F 69% 30.21 in 10.0 mi SSE 4.6 mph - N/A   Overcast
2:17 PM 26.6 °F 22.6 °F 15.8 °F 64% 30.21 in 10.0 mi SE 3.5 mph - N/A   Overcast
2:37 PM 26.6 °F 20.0 °F 15.8 °F 64% 30.21 in 10.0 mi SSE 5.8 mph - N/A   Overcast
2:57 PM 26.6 °F 20.0 °F 17.6 °F 69% 30.21 in 10.0 mi SSE 5.8 mph - N/A   Overcast
3:17 PM 26.6 °F 20.0 °F 17.6 °F 69% 30.21 in 10.0 mi South 5.8 mph - N/A   Overcast
3:37 PM 28.4 °F 23.3 °F 17.6 °F 64% 30.21 in 10.0 mi SSE 4.6 mph - N/A   Overcast
3:57 PM 28.4 °F 20.4 °F 17.6 °F 64% 30.19 in 10.0 mi SSE 8.1 mph - N/A   Overcast
4:17 PM 28.4 °F 21.2 °F 19.4 °F 69% 30.19 in 10.0 mi South 6.9 mph - N/A   Overcast
4:37 PM 28.4 °F 20.4 °F 19.4 °F 69% 30.18 in 10.0 mi SSE 8.1 mph - N/A   Scattered Clouds
4:57 PM 30.2 °F 21.9 °F 19.4 °F 64% 30.18 in 10.0 mi South 9.2 mph - N/A   Clear
5:17 PM 30.2 °F 21.9 °F 19.4 °F 64% 30.18 in 10.0 mi SSE 9.2 mph - N/A   Clear
5:37 PM 28.4 °F 19.7 °F 19.4 °F 69% 30.17 in 10.0 mi SSE 9.2 mph - N/A   Clear
5:57 PM 28.4 °F 19.7 °F 19.4 °F 69% 30.17 in 10.0 mi SSE 9.2 mph - N/A   Clear
6:17 PM 28.4 °F 22.2 °F 19.4 °F 69% 30.16 in 10.0 mi SSE 5.8 mph - N/A   Clear
6:39 PM 26.6 °F 19.1 °F 17.6 °F 69% 30.16 in 10.0 mi SSE 6.9 mph - N/A   Clear
6:57 PM 26.6 °F 18.2 °F 17.6 °F 69% 30.15 in 10.0 mi SSE 8.1 mph - N/A   Clear
7:17 PM 26.6 °F 16.8 °F 17.6 °F 69% 30.15 in 10.0 mi SE 10.4 mph - N/A   Clear
7:37 PM 24.8 °F 15.3 °F 17.6 °F 74% 30.15 in 10.0 mi SSE 9.2 mph - N/A   Clear
7:57 PM 24.8 °F 14.6 °F 17.6 °F 74% 30.15 in 10.0 mi SSE 10.4 mph - N/A   Clear
8:17 PM 24.8 °F 15.3 °F 17.6 °F 74% 30.15 in 10.0 mi SSE 9.2 mph - N/A   Clear
8:37 PM 24.8 °F 16.1 °F 17.6 °F 74% 30.15 in 10.0 mi SSE 8.1 mph - N/A   Clear
8:57 PM 24.8 °F 15.3 °F 17.6 °F 74% 30.15 in 10.0 mi SSE 9.2 mph - N/A   Clear
9:19 PM 24.8 °F 14.6 °F 17.6 °F 74% 30.16 in 10.0 mi SSE 10.4 mph - N/A   Clear
9:37 PM 24.8 °F 14.6 °F 17.6 °F 74% 30.15 in 10.0 mi SSE 10.4 mph - N/A   Clear
9:59 PM 24.8 °F 14.0 °F 17.6 °F 74% 30.14 in 10.0 mi SSE 11.5 mph - N/A   Clear
10:17 PM 24.8 °F 13.4 °F 17.6 °F 74% 30.14 in 10.0 mi SSE 12.7 mph - N/A   Clear
10:39 PM 24.8 °F 13.4 °F 17.6 °F 74% 30.14 in 10.0 mi South 12.7 mph - N/A   Clear
10:57 PM 24.8 °F 14.0 °F 17.6 °F 74% 30.14 in 10.0 mi South 11.5 mph - N/A   Clear
11:17 PM 24.8 °F 13.4 °F 17.6 °F 74% 30.13 in 10.0 mi SSE 12.7 mph - N/A   Clear
11:37 PM 24.8 °F 14.0 °F 17.6 °F 74% 30.13 in 10.0 mi SSE 11.5 mph - N/A   Clear
11:57 PM 24.8 °F 13.4 °F 17.6 °F 74% 30.12 in 10.0 mi South 12.7 mph - N/A   Clear